[[{"header":{"parameterUnit":"m.s-1","parameterCategory":1,"la1":30.2991,"la2":30.254,"lo1":-89.0895,"lo2":-89.0444,"dy":0.0017,"dx":0.0017,"nx":28,"ny":28,"refTime":"2024-06-19T09:00:00:Z","depth":0,"parameterNumber":2,"parameterNumberName":"U-component_of_WINDS"},"data":[0,0,0,0,0,0,0,0,0,0,0,0,0,0,0,0,0,0,0,0,0,0,0,0,0,0,0,0,0,0,0,0,0,0,0,0,0,0,0,0,0,0,0,0,0,0,0,0,0,0,0,0,0,0,0,0,0,0,-5.4773,-5.4773,0,-5.4725,-5.4724,-5.4724,-5.4513,-5.4508,-5.4503,-5.4498,-5.4452,-5.4456,-5.4459,0,0,0,0,0,0,0,0,0,0,0,0,0,-5.4685,-5.4688,-5.4773,-5.4773,-5.4772,-5.4725,-5.4724,-5.4724,-5.4513,-5.4507,-5.4501,-5.4496,-5.4451,-5.4455,-5.4459,0,0,0,0,0,0,0,0,0,0,0,0,0,-5.4689,-5.4689,-5.4773,-5.4661,-5.4651,-5.4725,-5.4724,-5.4724,-5.4515,-5.4507,-5.45,-5.4493,-5.445,-5.4455,-5.446,-5.464,0,0,-5.4476,-5.4478,0,0,0,0,0,0,0,0,-5.4689,-5.4693,-5.4678,-5.4669,-5.4657,-5.4617,-5.4676,-5.4696,-5.4517,-5.4567,-5.4498,-5.4489,-5.4514,-5.4513,-5.452,-5.4638,-5.4636,-5.4476,-5.4479,-5.4481,-5.4483,0,0,0,0,0,0,0,-5.4689,-5.4694,-5.4754,-5.4678,-5.4666,-5.4614,-5.4607,-5.4679,-5.4582,-5.4562,-5.4546,-5.4543,-5.4506,-5.4516,-5.4518,-5.4635,-5.4476,-5.448,-5.4483,-5.4485,-5.4895,-5.4902,0,0,0,0,0,0,-5.4704,-5.4695,-5.4756,-5.4753,-5.4655,-5.4622,-5.4613,-5.4638,-5.4581,-5.4565,-5.4549,-5.4533,-5.4511,-5.4512,-5.4515,-5.4719,-5.4481,-5.4486,-5.4489,-5.4887,-5.4897,-5.4905,0,0,0,0,0,0,-5.4703,-5.4712,-5.4758,-5.4719,-5.4721,-5.4631,-5.466,-5.4641,-5.4649,-5.4572,-5.4554,-5.4577,-5.4505,-5.4508,-5.4609,-5.4715,-5.4488,-5.4493,-5.4878,-5.489,-5.4901,-5.5131,0,0,0,0,0,0,-5.4702,-5.4713,-5.478,-5.4723,-5.4724,-5.4853,-5.4667,-5.4645,-5.4659,-5.4637,-5.4592,-5.4578,-5.4499,-5.4603,-5.4615,-5.4718,-5.4497,-5.4868,-5.4883,-5.4897,-5.5114,-5.5149,-5.518,0,0,0,0,0,-5.4699,-5.4848,-5.4784,-5.4793,-5.4806,-5.4859,-5.486,-5.4765,-5.4668,-5.4734,-5.4684,-5.4579,-5.4702,-5.4615,-5.4626,-5.4733,-5.4861,-5.4879,-5.4896,-5.5099,-5.5142,-5.5179,0,0,0,0,0,0,-5.4921,-5.4838,-5.4767,-5.4901,-5.4889,-5.4823,-5.4904,-5.4815,-5.4831,-5.481,-5.4694,-5.4685,-5.4804,-5.4778,-5.4683,-5.4903,-5.4764,-5.4785,-5.4914,-5.4955,-5.4987,-5.4989,-5.4501,0,0,0,0,0,-5.4986,-5.5035,-5.496,-5.5086,-5.5083,-5.4996,-5.5015,-5.4943,-5.4926,-5.492,-5.4877,-5.4866,-5.4901,-5.4927,-5.4956,-5.511,-5.5096,-5.5189,-5.5222,-5.5249,-5.5268,-5.5345,-5.5385,-5.4963,-5.4963,-5.4962,0,0,-5.5119,-5.508,-5.5118,-5.5129,-5.5111,-5.5165,-5.4992,-5.5057,-5.5096,-5.493,-5.5022,-5.4991,-5.497,-5.5098,-5.5153,-5.5081,-5.5382,-5.5272,-5.5294,-5.5297,-5.5367,-5.5407,-5.5443,-5.4975,-5.4973,-5.4971,0,0,-5.5389,-5.5366,-5.5466,-5.5451,-5.5425,-5.5366,-5.539,-5.5339,-5.5311,-5.5401,-5.5277,-5.5323,-5.5387,-5.5376,-5.538,-5.5646,-5.5549,-5.5659,-5.583,-5.5908,-5.5941,-5.5969,-5.6062,-5.6097,-5.5678,-5.5679,-5.5679,0,-5.5559,-5.5633,-5.5529,-5.5601,-5.5609,-5.5461,-5.5561,-5.5552,-5.5539,-5.5548,-5.5468,-5.5544,-5.552,-5.5642,-5.5707,-5.5716,-5.5739,-5.5662,-5.5944,-5.5972,-5.5997,-5.6084,-5.612,-5.5692,-5.569,-5.5689,-5.5688,0,-5.5841,-5.5896,-5.598,-5.5967,-5.5985,-5.6072,-5.5981,-5.6012,-5.594,-5.5889,-5.5983,-5.5949,-5.5967,-5.5991,-5.5922,-5.6104,-5.606,-5.5965,-5.5822,-5.6053,-5.6132,-5.6165,-5.5711,-5.5706,-5.5702,-5.5699,0,0,-5.6248,-5.6176,-5.6209,-5.62,-5.6161,-5.6201,-5.6281,-5.6297,-5.6325,-5.6321,-5.6384,-5.6442,-5.6352,-5.6357,-5.6285,-5.6353,-5.6563,-5.6248,-5.6246,-5.6306,-5.6759,-5.6829,-5.6869,-5.65,-5.6506,-5.6511,-5.676,0,-5.6503,-5.6632,-5.6541,-5.6687,-5.6734,-5.6595,-5.6664,-5.6648,-5.6604,-5.6638,-5.6589,-5.6631,-5.6511,-5.6512,-5.6574,-5.6525,-5.6652,-5.6506,-5.6557,-5.656,-5.6563,-5.6911,-5.6985,-5.7222,-5.6791,-5.6796,-5.68,0,-5.6817,-5.6824,-5.6974,-5.6922,-5.6939,-5.7003,-5.7009,-5.7045,-5.7024,-5.6987,-5.6992,-5.6902,-5.6977,-5.684,-5.6941,-5.6844,-5.686,-5.6839,-5.6846,-5.6844,-5.6692,-5.6917,-5.7295,-5.733,-5.6848,-5.6844,-5.6841,0,-5.7094,-5.7142,-5.7236,-5.7234,-5.7178,-5.7226,-5.7205,-5.7177,-5.7192,-5.7199,-5.7207,-5.7224,-5.7233,-5.7248,-5.7166,-5.7074,-5.7278,-5.7134,-5.7248,-5.7251,-5.7295,-5.7292,-5.7678,-5.7312,-5.7311,-5.731,-5.731,0,-5.7386,-5.7483,-5.736,-5.7418,-5.7522,-5.7417,-5.7523,-5.7488,-5.7464,-5.7513,-5.7396,-5.7445,-5.7334,-5.7373,-5.731,-5.7402,-5.7408,-5.7379,-5.7361,-5.7388,-5.7391,-5.7394,-5.7375,-5.732,-5.7318,-5.7316,-5.7314,0,-5.7712,-5.7634,-5.7727,-5.7666,-5.7653,-5.7732,-5.768,-5.7732,-5.768,-5.7744,-5.7753,-5.7671,-5.771,-5.763,-5.7659,-5.7616,-5.7746,-5.7704,-5.7753,-5.7738,-5.7856,-5.7845,-5.8255,-5.8302,-5.7909,-5.7913,-5.7916,0,-5.7901,-5.7972,-5.7918,-5.7941,-5.7926,-5.7966,-5.798,-5.7881,-5.7901,-5.7882,-5.7936,-5.7965,-5.7981,-5.805,-5.7995,-5.8016,-5.7971,-5.8113,-5.7973,-5.7998,-5.7969,-5.7965,-5.797,-5.8141,-5.8146,-5.815,-5.8153,0,-5.8245,-5.8203,-5.8226,-5.8237,-5.8257,-5.8261,-5.8257,-5.8284,-5.8178,-5.8207,-5.8244,-5.8257,-5.8285,-5.8315,-5.8323,-5.8302,-5.8211,-5.8198,-5.8225,-5.8251,-5.8276,-5.8261,-5.7828,-5.8188,-5.8185,-5.8182,-5.818,-5.8179,-5.8506,-5.856,-5.853,-5.8561,-5.8547,-5.8546,-5.859,-5.8544,-5.8572,-5.8585,-5.8526,-5.8577,-5.8554,-5.8555,-5.8544,-5.8583,-5.8519,-5.8559,-5.8568,-5.8579,-5.8596,-5.8273,-5.8585,-5.8583,-5.8582,-5.8581,-5.8581,0,-5.884,-5.8813,-5.8843,-5.8839,-5.8864,-5.8774,-5.8766,-5.8792,-5.8837,-5.8823,-5.8842,-5.8884,-5.8912,-5.886,-5.8879,-5.892,-5.8879,-5.8929,-5.8923,-5.8919,-5.8654,-5.8627,-5.8962,-5.8962,-5.8962,-5.8962,-5.8962,-5.8962,-5.9016,-5.9103,-5.9058,-5.9138,-5.9111,-5.9157,-5.916,-5.9158,-5.9146,-5.9198,-5.922,-5.9185,-5.9155,-5.9172,-5.9194,-5.9178,-5.919,-5.9254,-5.9224,-5.8976,-5.8938,-5.8903,-5.8876,-5.9258,-5.9259,-5.9485,-5.9487,-5.9489]},{"header":{"parameterUnit":"m.s-1","parameterCategory":1,"la1":30.2991,"la2":30.254,"lo1":-89.0895,"lo2":-89.0444,"dy":0.0017,"dx":0.0017,"nx":28,"ny":28,"refTime":"2024-06-19T09:00:00:Z","depth":0,"parameterNumber":3,"parameterNumberName":"V-component_of_WINDS"},"data":[0,0,0,0,0,0,0,0,0,0,0,0,0,0,0,0,0,0,0,0,0,0,0,0,0,0,0,0,0,0,0,0,0,0,0,0,0,0,0,0,0,0,0,0,0,0,0,0,0,0,0,0,0,0,0,0,0,0,-0.3959,-0.396,0,-0.4054,-0.4055,-0.4056,-0.414,-0.4141,-0.4142,-0.4143,-0.4242,-0.4244,-0.4245,0,0,0,0,0,0,0,0,0,0,0,0,0,-0.3851,-0.3853,-0.3959,-0.396,-0.3961,-0.4053,-0.4055,-0.4056,-0.414,-0.4141,-0.4142,-0.4143,-0.4241,-0.4243,-0.4246,0,0,0,0,0,0,0,0,0,0,0,0,0,-0.3917,-0.3853,-0.3959,-0.4014,-0.402,-0.4053,-0.4055,-0.4056,-0.4139,-0.4141,-0.4142,-0.4144,-0.4241,-0.4243,-0.4246,-0.4233,0,0,-0.4254,-0.4255,0,0,0,0,0,0,0,0,-0.3913,-0.3921,-0.4005,-0.401,-0.4017,-0.4086,-0.4053,-0.4115,-0.4139,-0.4094,-0.4143,-0.4144,-0.4189,-0.4196,-0.4211,-0.4237,-0.4242,-0.4254,-0.4256,-0.4257,-0.4257,0,0,0,0,0,0,0,-0.3909,-0.3917,-0.3996,-0.4006,-0.4013,-0.4034,-0.4045,-0.4065,-0.4132,-0.4098,-0.4104,-0.4114,-0.4193,-0.4208,-0.4214,-0.4243,-0.4254,-0.4256,-0.4258,-0.4259,-0.4262,-0.426,0,0,0,0,0,0,-0.3895,-0.3913,-0.3993,-0.3999,-0.3967,-0.4035,-0.4047,-0.4063,-0.4132,-0.4144,-0.4113,-0.4118,-0.4203,-0.4211,-0.4217,-0.4206,-0.4257,-0.4259,-0.4261,-0.4263,-0.4261,-0.426,0,0,0,0,0,0,-0.3893,-0.3902,-0.399,-0.3958,-0.3971,-0.4035,-0.4052,-0.4064,-0.4079,-0.4144,-0.4156,-0.4116,-0.4204,-0.4214,-0.4228,-0.421,-0.426,-0.4263,-0.4265,-0.4263,-0.426,-0.4182,0,0,0,0,0,0,-0.3889,-0.39,-0.3896,-0.3957,-0.3972,-0.3998,-0.4051,-0.4064,-0.4083,-0.409,-0.415,-0.4161,-0.4206,-0.4223,-0.423,-0.4215,-0.4265,-0.4267,-0.4264,-0.4261,-0.4186,-0.4177,-0.417,0,0,0,0,0,-0.3885,-0.3871,-0.3895,-0.3904,-0.3968,-0.3997,-0.4005,-0.4057,-0.4081,-0.4077,-0.4118,-0.4159,-0.4211,-0.4224,-0.4233,-0.4218,-0.4268,-0.4265,-0.4261,-0.419,-0.4179,-0.417,0,0,0,0,0,0,-0.3807,-0.388,-0.3908,-0.3913,-0.3948,-0.4011,-0.4008,-0.4043,-0.4073,-0.4079,-0.4142,-0.4154,-0.4161,-0.4191,-0.4204,-0.4207,-0.4245,-0.4243,-0.4188,-0.4178,-0.4169,-0.4162,-0.4267,0,0,0,0,0,-0.3791,-0.3807,-0.387,-0.3869,-0.3885,-0.3942,-0.3957,-0.3993,-0.4032,-0.4048,-0.409,-0.4127,-0.4151,-0.4166,-0.4192,-0.4191,-0.4205,-0.4185,-0.4176,-0.4169,-0.4167,-0.4167,-0.4158,-0.4249,-0.4249,-0.4249,0,0,-0.3757,-0.3798,-0.3806,-0.3854,-0.3885,-0.3901,-0.3955,-0.397,-0.3982,-0.4051,-0.4066,-0.4098,-0.4143,-0.4148,-0.4153,-0.4173,-0.4144,-0.4165,-0.4158,-0.416,-0.4162,-0.4154,-0.4146,-0.4246,-0.4247,-0.4247,0,0,-0.3703,-0.3736,-0.3738,-0.3768,-0.3814,-0.3852,-0.3852,-0.3909,-0.3932,-0.3948,-0.3999,-0.4015,-0.4056,-0.4086,-0.4106,-0.406,-0.4099,-0.4067,-0.4023,-0.4022,-0.4015,-0.4009,-0.3992,-0.3986,-0.4064,-0.4064,-0.4064,0,-0.3656,-0.3681,-0.3735,-0.3746,-0.3765,-0.3826,-0.3828,-0.3854,-0.3907,-0.3919,-0.3941,-0.3992,-0.4027,-0.4039,-0.4027,-0.4042,-0.4044,-0.4061,-0.4012,-0.4006,-0.4002,-0.3986,-0.398,-0.406,-0.4061,-0.4061,-0.4061,0,-0.362,-0.3637,-0.3633,-0.368,-0.3699,-0.3705,-0.3759,-0.3772,-0.3806,-0.3842,-0.3856,-0.39,-0.3935,-0.394,-0.3975,-0.3957,-0.3968,-0.4,-0.4039,-0.3988,-0.3974,-0.3969,-0.4054,-0.4056,-0.4057,-0.4058,0,0,-0.3522,-0.3597,-0.3594,-0.3616,-0.3669,-0.3684,-0.3692,-0.3725,-0.3735,-0.3768,-0.3777,-0.3809,-0.3837,-0.386,-0.3898,-0.3897,-0.3857,-0.3929,-0.3931,-0.3914,-0.384,-0.3815,-0.3808,-0.3882,-0.3881,-0.3881,-0.3836,0,-0.3477,-0.3496,-0.3543,-0.3547,-0.3562,-0.3619,-0.3626,-0.366,-0.3693,-0.3711,-0.3748,-0.3769,-0.3806,-0.382,-0.3822,-0.3861,-0.3843,-0.3865,-0.3891,-0.3891,-0.3878,-0.3801,-0.3776,-0.3731,-0.3831,-0.383,-0.3829,0,-0.3428,-0.3456,-0.3461,-0.3512,-0.352,-0.3526,-0.3559,-0.3575,-0.3614,-0.3638,-0.3662,-0.3703,-0.3715,-0.375,-0.3767,-0.3781,-0.3794,-0.3815,-0.3814,-0.3819,-0.3857,-0.3803,-0.3719,-0.3712,-0.3822,-0.3822,-0.3823,0,-0.3355,-0.3394,-0.3402,-0.3418,-0.3478,-0.3481,-0.3506,-0.3546,-0.3562,-0.3591,-0.3602,-0.3632,-0.3649,-0.3671,-0.3719,-0.374,-0.373,-0.377,-0.375,-0.3749,-0.3747,-0.3746,-0.3662,-0.3754,-0.3755,-0.3755,-0.3755,0,-0.33,-0.3301,-0.3369,-0.3374,-0.3376,-0.343,-0.343,-0.3461,-0.3496,-0.3507,-0.3558,-0.3568,-0.363,-0.3647,-0.3685,-0.3692,-0.37,-0.3719,-0.3729,-0.3715,-0.3712,-0.3725,-0.3729,-0.3753,-0.3753,-0.3754,-0.3754,0,-0.322,-0.3266,-0.3278,-0.3332,-0.3346,-0.3345,-0.3392,-0.3398,-0.3433,-0.3447,-0.3454,-0.3509,-0.3531,-0.358,-0.3617,-0.3642,-0.364,-0.3658,-0.3627,-0.3633,-0.3611,-0.3612,-0.3532,-0.3525,-0.3621,-0.362,-0.3619,0,-0.3182,-0.3184,-0.3238,-0.3248,-0.3271,-0.3288,-0.3304,-0.3356,-0.3371,-0.3413,-0.3414,-0.344,-0.3464,-0.3497,-0.354,-0.3568,-0.3587,-0.3557,-0.3592,-0.3576,-0.3586,-0.3585,-0.3585,-0.355,-0.3548,-0.3547,-0.3546,0,-0.311,-0.3132,-0.3152,-0.318,-0.3197,-0.3222,-0.325,-0.3256,-0.3315,-0.3328,-0.3351,-0.3369,-0.3404,-0.3429,-0.3463,-0.3489,-0.3527,-0.3535,-0.3532,-0.3517,-0.3499,-0.3508,-0.3606,-0.3537,-0.3538,-0.3538,-0.3539,-0.3539,-0.305,-0.3053,-0.3091,-0.3111,-0.3137,-0.3161,-0.3169,-0.3204,-0.3223,-0.3255,-0.3285,-0.3304,-0.3342,-0.339,-0.3414,-0.343,-0.3449,-0.3445,-0.3444,-0.3442,-0.3435,-0.3495,-0.3436,-0.3437,-0.3437,-0.3437,-0.3437,0,-0.298,-0.3006,-0.3024,-0.306,-0.3076,-0.3109,-0.314,-0.3152,-0.3167,-0.3198,-0.322,-0.3245,-0.3268,-0.3313,-0.334,-0.3344,-0.3362,-0.335,-0.335,-0.3356,-0.3417,-0.3416,-0.3335,-0.3335,-0.3335,-0.3335,-0.3335,-0.3335,-0.2945,-0.2952,-0.2977,-0.2997,-0.3024,-0.3042,-0.3057,-0.3079,-0.3104,-0.3129,-0.3148,-0.3176,-0.3212,-0.3243,-0.3266,-0.3278,-0.3286,-0.3267,-0.3285,-0.3342,-0.3352,-0.3361,-0.3361,-0.3269,-0.3269,-0.3223,-0.3223,-0.3222]}]]